Regional Weather Roundup
Issued by NWS

Home | Current Version | Previous Version | Graphics & Text | Print | Product List | Glossary On
Versions: 1 2 3 4 5 6 7 8 9 10 11 12 13 14 15 16 17 18 19 20 21 22 23 24 25 26 27 28 29 30 31 32 33 34 35 36 37 38 39 40 41 42 43 44 45 46 47 48 49 50
376
ASUS45 KTFX 231410
RWRMT
MONTANA REGIONAL WEATHER ROUNDUP
NATIONAL WEATHER SERVICE GREAT FALLS MT
700 AM MST MON JAN 23 2017

NOTE: "FAIR" INDICATES FEW OR NO CLOUDS BELOW 12000 FEET WITH NO
SIGNIFICANT WEATHER AND/OR OBSTRUCTIONS TO VISIBILITY.

MTZ001>007-043-231500-
WEST OF THE DIVIDE

CITY           SKY/WX    TMP DP  RH WIND       PRES   REMARKS
KALISPELL      LGT SNOW  29  24  82 N13       29.68R WCI  19
MISSOULA       FOG       23  23 100 SE3       29.67S VSB 1/4
BUTTE          CLOUDY    -1  -5  82 CALM      29.59F
MULLAN PASS    CLOUDY    24  21  88 VRB3      29.55S FOG
ANACONDA         N/A     16   9  73 SW6       29.59F WCI   7
DEER LODGE       N/A     16  12  86 CALM      29.64S
EUREKA           N/A     25  21  86 CALM      29.72R
HAMILTON         N/A     18  16  93 CALM      29.65S VSB 0
PLAINS           N/A     24  20  85 CALM      29.71
RONAN            N/A     25  23  91 CALM      29.72S
$$

MTZ008-052>055-231500-
SOUTHWEST MONTANA

CITY           SKY/WX    TMP DP  RH WIND       PRES   REMARKS
BOZEMAN        FOG       13  12  96 CALM      29.64R VSB 1/4
DILLON         CLOUDY   N/A N/A N/A SW6       29.58F
W YELLOWSTONE  CLOUDY    19  19 100 CALM      29.58S
ENNIS          CLEAR     14   9  79 E6        29.62F WCI   5
$$

MTZ009-010-012-014-046-048-049-054-231500-
EAST SLOPES AND CENTRAL MONTANA

CITY           SKY/WX    TMP DP  RH WIND       PRES   REMARKS
CUT BANK       LGT SNOW  18  16  92 NW5       29.73R FOG
GREAT FALLS    CLOUDY    22  20  92 W3        29.70S
MALMSTROM AFB  FLURRIES  22  22 100 NW6       29.72S WCI  15
HELENA         CLOUDY    24  17  74 NW3       29.68R
AUGUSTA        CLOUDY    20  20  99 N14       29.67S WCI   7
BOWMANS CRNR   FLURRIES  19  18  96 NW3       29.67R
CHOTEAU          N/A     19  19 100 N9        29.72S WCI   9
CONRAD           N/A     20  19  96 NW5       29.77S
POWER          FLURRIES  20  19  96 N7        29.70S WCI  11
RAYNESFORD     LGT SNOW  22  22  97 NW6       29.68S WCI  15
ULM            FLURRIES  22  22  98 MISG      29.71S
$$

MTZ011-013-016-021-045-047-050-051-231500-
NORTH CENTRAL MONTANA

CITY           SKY/WX    TMP DP  RH WIND       PRES   REMARKS
HAVRE          LGT SNOW  24  22  91 NE9       29.75S FOG     WCI  14
LEWISTOWN      FLURRIES  22  20  92 W7        29.65S WCI  13
CHINOOK          N/A     27  25  93 NE3       29.76S
DENTON         LGT SNOW  23  22  97 NW3       29.66R
FORT BENTON      N/A    N/A N/A N/A MISG      29.75R VSB 1
GEYSER         FLURRIES  22  21  96 CALM      29.67R
GRASS RANGE    CLOUDY    22  21  97 CALM      29.64R
JUDITH GAP     FRZ DRZL  20  19  93 N18       29.62R FOG     WCI   5
ROY            SNOWSHWR  23  22  98 MISG      29.67R FOG
STANFORD       MOCLDY    20  19  98 NW5       29.65R
WINIFRED       LGT SNOW  22  22  98 CALM      29.67S FOG
$$

MTZ017>020-022>027-061-062-231500-
NORTHEAST MONTANA

CITY           SKY/WX    TMP DP  RH WIND       PRES   REMARKS
GLASGOW        CLOUDY    26  24  92 W8        29.75R WCI  18
JORDAN           N/A     24  21  88 E6        29.72R WCI  17
SIDNEY         CLOUDY    27  24  89 CALM      29.76S
WOLF POINT     CLOUDY    28  24  85 NE7       29.76F WCI  21
PLENTYWOOD       N/A     21  19  93 NW6       29.75F WCI  14
POPLAR           N/A     27  23  86 NE5       29.77S
$$

MTZ028>42-056>058-231500-
SOUTHCENTRAL AND SOUTHEAST MONTANA

CITY           SKY/WX    TMP DP  RH WIND       PRES   REMARKS
BAKER          FOG       19  16  88 SE20      29.69F VSB 3/4 WCI   3
BILLINGS       CLOUDY    17  14  88 W7        29.65R WCI   8
LIVINGSTON     CLOUDY    14  10  84 NW6       29.61R WCI   5
MILES CITY     FOG       22  19  89 NE9       29.68F VSB 1/2 WCI  12
BIG TIMBER     CLEAR     19  16  86 CALM      29.64R
EKALAKA          N/A     17  12  80 SE15      29.64F WCI   2
FORSYTH          N/A     19  19 100 CALM      29.70R VSB 3/4
HARLOWTON      MOCLDY    18  17  97 NW7       29.63R WCI   9
LAUREL           N/A     16  11  80 CALM      29.65S
$$

REGIONAL REPORTS...DAKOTAS

CITY           SKY/WX    TMP DP  RH WIND       PRES   REMARKS
WILLISTON      CLOUDY    25  22  88 N7        29.77R WCI  17
MINOT          CLOUDY    27  21  78 NW8       29.75S WCI  19
DICKINSON      CLOUDY    23  19  85 SE3       29.73S
BEACH          CLOUDY    23  23 100 SE8       29.76S WCI  14
CROSBY         CLOUDY    21  19  93 NW12      29.78S WCI   9
TIOGA          CLOUDY    23  23 100 NW10      29.76R WCI  12
WATFORD CITY   CLOUDY    27  25  93 N6        29.76R WCI  20
BISMARCK       CLOUDY    29  23  78 W3        29.81S
GRAND FORKS    CLOUDY    32  25  75 NW7       29.77S WCI  26
FARGO          CLOUDY    34  28  79 SW5       29.79F
BUFFALO SD       N/A     20  14  77 NE3       29.63F
RAPID CITY     CLOUDY    22  20  92 E3        29.67S
$$

REGIONAL REPORTS...WYOMING/IDAHO/WASHINGTON

CITY           SKY/WX    TMP DP  RH WIND       PRES   REMARKS
GILLETTE       CLOUDY    27  22  81 N5        29.58R
SHERIDAN       CLOUDY    18  14  84 S3        29.59S
BUFFALO WY     CLOUDY    26  14  60 CALM      29.57S
CODY           CLOUDY    13  10  88 S5        29.59R
YELLOWSTONE LA   N/A      6   5  95 CALM      29.57F
IDAHO FALLS    CLOUDY    29  26  89 E6        29.54F WCI  23
SALMON         CLOUDY     9   7  92 CALM      29.65S
BOISE          LGT SNOW  28  26  92 SW5       29.58R FOG
SPOKANE        FOG       31  30  96 CALM      29.67S VSB 1/4
$$

REGIONAL REPORTS...ALBERTA

CITY           SKY/WX    TMP DP  RH WIND       PRES   REMARKS
EDMONTON       CLOUDY    14   7  73 NE2       29.86S
CALGARY        FOG       19  18  93 SE5       29.75S VSB 1/2
LETHBRIDGE     FOG       19  18  93 NE3       29.79R VSB 1/2
MEDICINE HAT   CLOUDY    19  18  93 N5        29.81S
CARDSTON         N/A     18  18 100 CALM        N/A
MILK RIVER       N/A     18  16  93 N7          N/A  WCI   8
ONEFOUR          N/A     19  18  93 NW10        N/A  WCI   8
$$

REGIONAL REPORTS...SASKATCHEWAN

CITY           SKY/WX    TMP DP  RH WIND       PRES   REMARKS
SWIFT CURRENT  CLOUDY    16  14  93 NW14      29.73S WCI   1
REGINA         CLOUDY    18  14  86 NW13      29.75S WCI   4
CYPRESS HILLS    N/A     14  10  85 N1          N/A
VAL MARIE        N/A     19  18  93 N10         N/A  WCI   8
ROCKGLEN         N/A     18  16  93 NW6         N/A  WCI   9
$$




USA.gov is the U.S. government's official web portal to all federal, state and local government web resources and services.